Orbital Elements at Epoch 2459200.5 (2020-Dec-17.0) TDB
Reference: JPL 18 (heliocentric ecliptic J2000)
Element | Value | Uncertainty (1-sigma) | Units |
e | .2145954821462091 | 3.5372e-08 | |
a | 2.677665007184945 | 1.0336e-08 | au |
q | 2.103050193942059 | 9.2223e-08 | au |
i | 11.39833823609083 | 6.3963e-06 | deg |
node | 37.83908577684438 | 1.8612e-05 | deg |
peri | 99.76111512626807 | 2.494e-05 | deg |
M | 99.71163901967726 | 1.5162e-05 | deg |
tp | 2458757.222032538375 (2019-Sep-30.72203254) | 6.6494e-05 | TDB |
period | 1600.415657140016 4.38 | 9.2662e-06 2.537e-08 | d yr |
n | .2249415633956802 | 1.3024e-09 | deg/d |
Q | 3.252279820427831 | 1.2554e-08 | au |
|
| | Orbit Determination Parameters
Additional Information
|